Regional Weather Roundup
Issued by NWS

Home | Current Version | Previous Version | Text Only | Print | Product List | Glossary Off
Versions: 1 2 3 4 5 6 7 8 9 10 11 12 13 14 15 16 17 18 19 20 21 22 23 24 25 26 27 28 29 30 31 32 33 34 35 36 37 38 39 40 41 42 43 44 45 46 47 48 49 50

000
ASUS43 KFSD 251402
RWRSD

WEATHER ROUNDUP FOR SOUTH DAKOTA
NATIONAL WEATHER SERVICE SIOUX FALLS SD
900 AM CDT THU AUG 25 2016

NOTE: "FAIR" INDICATES FEW OR NO CLOUDS BELOW 12,000 FEET WITH NO
SIGNIFICANT WEATHER AND/OR OBSTRUCTIONS TO VISIBILITY.


SDZ001>005-009-010-012>017-251500-
NORTHWEST AND NORTH CENTRAL SOUTH DAKOTA

CITY           SKY/WX    TMP DP  RH WIND       PRES   REMARKS
BUFFALO          N/A     52  46  80 W16       30.20R
MOBRIDGE       SUNNY     58  48  69 NW18G24   30.14S
$$

SDZ012>016-024>037-041>051-057-063-072>074-251500-
SOUTHWEST AND SOUTH CENTRAL SOUTH DAKOTA

CITY           SKY/WX    TMP DP  RH WIND       PRES   REMARKS
RAPID CTY ARPT PTSUNNY   57  43  59 N7        30.27S
PIERRE         SUNNY     58  48  69 W13       30.18F
CUSTER         CLOUDY    49  40  71 CALM      30.31R
PHILIP         CLOUDY    56  47  71 W9        30.26R
PINE RIDGE     CLOUDY    53  48  83 NE5       30.29R
WINNER         FAIR      58  49  72 NW12      30.23R
$$

SDZ004>011-016>023-039-040-251500-
NORTHEAST SOUTH DAKOTA

CITY           SKY/WX    TMP DP  RH WIND       PRES   REMARKS
ABERDEEN       SUNNY     56  49  77 SW9       30.12R
WATERTOWN      SUNNY     57  50  77 W13       30.11S
BROOKINGS      PTSUNNY   57  53  86 NW12      30.11F
$$

SDZ017-020-022-023-036>040-048>070-251500-
SOUTHEAST SOUTH DAKOTA

CITY           SKY/WX    TMP DP  RH WIND       PRES   REMARKS
SIOUX FALLS    CLOUDY    61  53  75 N10       30.13R
HURON          MOSUNNY   58  50  75 NW13      30.15R
CHAMBERLAIN    MOSUNNY   58  51  76 NW12      30.20S
MITCHELL       MOSUNNY   57  51  80 NW8       30.17R
YANKTON        CLOUDY    59  50  72 NW13      30.14R
$$

ABBREVIATIONS USED IN REMARKS
   TC - TEMPERATURE IN CELSIUS
  WCI - WIND CHILL INDEX
   HX - HEAT INDEX
  VSB - VISIBILITY





USA.gov is the U.S. government's official web portal to all federal, state and local government web resources and services.